[[{"header":{"parameterUnit":"m.s-1","parameterCategory":1,"la1":30.2991,"la2":30.254,"lo1":-89.0895,"lo2":-89.0444,"dy":0.0017,"dx":0.0017,"nx":28,"ny":28,"refTime":"2026-01-03T03:00:00:Z","depth":0,"parameterNumber":2,"parameterNumberName":"U-component_of_WINDS"},"data":[0,0,0,0,0,0,0,0,0,0,0,0,0,0,0,0,0,0,0,0,0,0,0,0,0,0,0,0,0,0,0,0,0,0,0,0,0,0,0,0,0,0,0,0,0,0,0,0,0,0,0,0,0,0,0,0,0,0,-1.9629,-1.9629,0,-1.9687,-1.9687,-1.9688,-1.9648,-1.9646,-1.9644,-1.9643,-1.9703,-1.9706,-1.971,0,0,0,0,0,0,0,0,0,0,0,0,0,-1.9484,-1.9487,-1.9629,-1.9629,-1.963,-1.9686,-1.9687,-1.9688,-1.9648,-1.9646,-1.9644,-1.9642,-1.9702,-1.9706,-1.971,0,0,0,0,0,0,0,0,0,0,0,0,0,-1.9545,-1.9488,-1.9628,-1.9617,-1.9616,-1.9686,-1.9687,-1.9688,-1.9649,-1.9646,-1.9643,-1.9641,-1.9701,-1.9706,-1.971,-1.9795,0,0,-1.9726,-1.9728,0,0,0,0,0,0,0,0,-1.9542,-1.955,-1.9618,-1.9618,-1.9617,-1.9657,-1.9658,-1.9724,-1.9649,-1.9636,-1.9642,-1.9639,-1.969,-1.9696,-1.9713,-1.9798,-1.9801,-1.9726,-1.9729,-1.9731,-1.9733,0,0,0,0,0,0,0,-1.9538,-1.9548,-1.9652,-1.9619,-1.9619,-1.9609,-1.9615,-1.9671,-1.9678,-1.9637,-1.9635,-1.9642,-1.9689,-1.9708,-1.9714,-1.9802,-1.9726,-1.973,-1.9733,-1.9735,-1.9959,-1.9962,0,0,0,0,0,0,-1.9534,-1.9544,-1.965,-1.9653,-1.9572,-1.9614,-1.962,-1.9647,-1.9677,-1.9679,-1.9644,-1.964,-1.9701,-1.9708,-1.9716,-1.9817,-1.9731,-1.9736,-1.9739,-1.9956,-1.996,-1.9963,0,0,0,0,0,0,-1.9531,-1.9544,-1.9647,-1.9598,-1.9611,-1.9619,-1.965,-1.965,-1.9668,-1.9682,-1.9683,-1.9662,-1.9699,-1.9709,-1.9776,-1.9819,-1.9738,-1.9742,-1.9953,-1.9957,-1.9962,-2.002,0,0,0,0,0,0,-1.9527,-1.9543,-1.9575,-1.9599,-1.9613,-1.9706,-1.9653,-1.9653,-1.9677,-1.9672,-1.9699,-1.9701,-1.9698,-1.9768,-1.9781,-1.9824,-1.9746,-1.9949,-1.9955,-1.996,-2.0015,-2.0026,-2.0036,0,0,0,0,0,-1.9522,-1.959,-1.9577,-1.959,-1.9654,-1.9709,-1.9717,-1.9711,-1.968,-1.9713,-1.9722,-1.97,-1.9812,-1.9776,-1.9789,-1.9834,-1.9946,-1.9953,-1.996,-2.001,-2.0024,-2.0036,0,0,0,0,0,0,-1.9571,-1.9593,-1.9579,-1.9656,-1.9681,-1.9702,-1.9743,-1.9727,-1.9761,-1.9755,-1.9747,-1.9753,-1.9823,-1.9835,-1.9795,-1.9918,-1.9874,-1.9884,-1.9908,-1.9921,-1.9932,-1.9928,-1.975,0,0,0,0,0,-1.9591,-1.9634,-1.965,-1.9717,-1.973,-1.9734,-1.9758,-1.9752,-1.9777,-1.9788,-1.9801,-1.9827,-1.9868,-1.9895,-1.9934,-2.0016,-2.0021,-2.0054,-2.0064,-2.0073,-2.0082,-2.0127,-2.0141,-1.9985,-1.9985,-1.9985,0,0,-1.9633,-1.965,-1.9677,-1.9727,-1.9746,-1.979,-1.9744,-1.9793,-1.9826,-1.9795,-1.9859,-1.987,-1.9898,-1.9973,-2.0007,-1.9986,-2.0126,-2.0082,-2.0089,-2.0093,-2.0135,-2.015,-2.0163,-1.999,-1.9989,-1.9988,0,0,-1.9731,-1.9748,-1.9805,-1.9825,-1.9853,-1.9855,-1.9869,-1.9892,-1.9898,-1.9962,-1.994,-1.9979,-2.005,-2.0071,-2.0091,-2.0197,-2.0178,-2.0209,-2.0266,-2.031,-2.0322,-2.0333,-2.0371,-2.0385,-2.0218,-2.0218,-2.0218,0,-1.9779,-1.9845,-1.9837,-1.9888,-1.9911,-1.9884,-1.9942,-1.9961,-2.0001,-2.0017,-1.9993,-2.008,-2.0098,-2.0177,-2.0203,-2.022,-2.0235,-2.0207,-2.0321,-2.0332,-2.0342,-2.0378,-2.0392,-2.0222,-2.0221,-2.0221,-2.0221,0,-1.9903,-1.9949,-1.9992,-2.0031,-2.0058,-2.0112,-2.0113,-2.0141,-2.0132,-2.0137,-2.0203,-2.0222,-2.0264,-2.0282,-2.0274,-2.0361,-2.0347,-2.0322,-2.0278,-2.036,-2.0394,-2.0408,-2.0227,-2.0226,-2.0225,-2.0224,0,0,-2.0035,-2.0067,-2.0084,-2.01,-2.0129,-2.0165,-2.0218,-2.0258,-2.0284,-2.0312,-2.0356,-2.0416,-2.0393,-2.0415,-2.0409,-2.0447,-2.053,-2.0417,-2.0418,-2.0438,-2.0627,-2.0647,-2.0663,-2.0518,-2.052,-2.0522,-2.0625,0,-2.0135,-2.0227,-2.0221,-2.0308,-2.0351,-2.0326,-2.0372,-2.0395,-2.0401,-2.0438,-2.0445,-2.0488,-2.0453,-2.0467,-2.0504,-2.0512,-2.0568,-2.0505,-2.056,-2.0562,-2.0554,-2.068,-2.0701,-2.0797,-2.0638,-2.0641,-2.0642,0,-2.0265,-2.0297,-2.0388,-2.041,-2.0428,-2.0469,-2.0506,-2.0541,-2.0567,-2.0568,-2.0594,-2.0581,-2.0635,-2.0589,-2.0663,-2.062,-2.0642,-2.065,-2.0653,-2.0659,-2.0607,-2.069,-2.0827,-2.0842,-2.0663,-2.0661,-2.066,0,-2.0352,-2.0418,-2.0481,-2.0496,-2.0524,-2.0553,-2.0566,-2.0589,-2.0614,-2.0645,-2.0661,-2.0699,-2.072,-2.075,-2.0748,-2.0715,-2.0824,-2.0777,-2.0827,-2.0827,-2.0852,-2.085,-2.0995,-2.0865,-2.0865,-2.0864,-2.0864,0,-2.0465,-2.0522,-2.052,-2.0559,-2.0622,-2.0615,-2.0677,-2.0687,-2.0707,-2.0747,-2.0728,-2.0767,-2.0761,-2.08,-2.0799,-2.0861,-2.087,-2.0873,-2.0872,-2.0875,-2.0875,-2.089,-2.0884,-2.0868,-2.0867,-2.0867,-2.0866,0,-2.0574,-2.0575,-2.0642,-2.0662,-2.0669,-2.0714,-2.0732,-2.0768,-2.0772,-2.0824,-2.0836,-2.0842,-2.0887,-2.0887,-2.0939,-2.0938,-2.1013,-2.1005,-2.1005,-2.1003,-2.1053,-2.1048,-2.1213,-2.1235,-2.109,-2.1091,-2.1092,0,-2.0646,-2.0689,-2.0714,-2.0739,-2.0754,-2.0795,-2.082,-2.0814,-2.0841,-2.0873,-2.0906,-2.0948,-2.0982,-2.1054,-2.1064,-2.1103,-2.1095,-2.115,-2.1101,-2.1103,-2.1097,-2.1094,-2.1099,-2.116,-2.1162,-2.1163,-2.1164,0,-2.0774,-2.0773,-2.0809,-2.0846,-2.0876,-2.0904,-2.0931,-2.0953,-2.095,-2.0981,-2.1026,-2.1052,-2.1104,-2.1147,-2.1184,-2.1198,-2.1181,-2.1179,-2.1193,-2.1197,-2.1195,-2.1197,-2.1032,-2.1176,-2.1175,-2.1174,-2.1173,-2.1173,-2.0867,-2.0904,-2.0927,-2.0968,-2.0988,-2.1013,-2.1048,-2.1057,-2.1094,-2.1135,-2.1129,-2.118,-2.1204,-2.1252,-2.1269,-2.1309,-2.129,-2.1309,-2.1314,-2.1319,-2.1325,-2.1189,-2.1315,-2.1315,-2.1315,-2.1314,-2.1314,0,-2.0995,-2.1008,-2.1046,-2.1083,-2.1116,-2.1096,-2.1124,-2.1153,-2.1197,-2.1221,-2.1254,-2.1306,-2.1347,-2.136,-2.14,-2.1429,-2.1422,-2.144,-2.1438,-2.1441,-2.134,-2.1324,-2.1445,-2.1444,-2.1444,-2.1444,-2.1444,-2.1444,-2.1065,-2.1127,-2.1128,-2.1199,-2.1212,-2.126,-2.1278,-2.1302,-2.132,-2.1379,-2.1413,-2.142,-2.144,-2.1481,-2.1518,-2.152,-2.1536,-2.1557,-2.1557,-2.1462,-2.1448,-2.1436,-2.1421,-2.156,-2.1561,-2.1655,-2.1656,-2.1657]},{"header":{"parameterUnit":"m.s-1","parameterCategory":1,"la1":30.2991,"la2":30.254,"lo1":-89.0895,"lo2":-89.0444,"dy":0.0017,"dx":0.0017,"nx":28,"ny":28,"refTime":"2026-01-03T03:00:00:Z","depth":0,"parameterNumber":3,"parameterNumberName":"V-component_of_WINDS"},"data":[0,0,0,0,0,0,0,0,0,0,0,0,0,0,0,0,0,0,0,0,0,0,0,0,0,0,0,0,0,0,0,0,0,0,0,0,0,0,0,0,0,0,0,0,0,0,0,0,0,0,0,0,0,0,0,0,0,0,-2.8966,-2.8966,0,-2.8983,-2.8983,-2.8984,-2.8957,-2.8956,-2.8955,-2.8954,-2.897,-2.8971,-2.8972,0,0,0,0,0,0,0,0,0,0,0,0,0,-2.8907,-2.8908,-2.8966,-2.8966,-2.8966,-2.8983,-2.8983,-2.8984,-2.8957,-2.8956,-2.8954,-2.8953,-2.8969,-2.8971,-2.8972,0,0,0,0,0,0,0,0,0,0,0,0,0,-2.8929,-2.8909,-2.8966,-2.8955,-2.8954,-2.8983,-2.8984,-2.8984,-2.8957,-2.8956,-2.8954,-2.8953,-2.8969,-2.897,-2.8972,-2.9012,0,0,-2.8978,-2.8979,0,0,0,0,0,0,0,0,-2.8928,-2.8932,-2.8956,-2.8956,-2.8955,-2.8966,-2.8969,-2.8993,-2.8957,-2.8956,-2.8954,-2.8952,-2.8969,-2.8971,-2.8978,-2.9013,-2.9014,-2.8978,-2.898,-2.898,-2.8981,0,0,0,0,0,0,0,-2.8927,-2.8931,-2.8973,-2.8957,-2.8956,-2.8948,-2.895,-2.8973,-2.897,-2.8956,-2.8954,-2.8956,-2.8969,-2.8976,-2.8978,-2.9014,-2.8978,-2.898,-2.8981,-2.8982,-2.9082,-2.9084,0,0,0,0,0,0,-2.8927,-2.893,-2.8972,-2.8973,-2.8938,-2.8951,-2.8952,-2.8964,-2.897,-2.8969,-2.8958,-2.8955,-2.8973,-2.8975,-2.8978,-2.9024,-2.898,-2.8982,-2.8983,-2.9081,-2.9082,-2.9084,0,0,0,0,0,0,-2.8926,-2.8931,-2.8971,-2.8951,-2.8956,-2.8953,-2.8966,-2.8965,-2.8972,-2.8971,-2.897,-2.8965,-2.8972,-2.8975,-2.9004,-2.9025,-2.8983,-2.8985,-2.9079,-2.9081,-2.9083,-2.9118,0,0,0,0,0,0,-2.8924,-2.8931,-2.8946,-2.8952,-2.8957,-2.8998,-2.8968,-2.8967,-2.8976,-2.8973,-2.8978,-2.8978,-2.8971,-2.9001,-2.9006,-2.9027,-2.8986,-2.9077,-2.908,-2.9083,-2.9115,-2.9121,-2.9126,0,0,0,0,0,-2.8922,-2.8955,-2.8947,-2.8953,-2.8976,-2.8999,-2.9002,-2.8994,-2.8978,-2.8993,-2.8992,-2.8978,-2.9022,-2.9004,-2.9009,-2.9031,-2.9076,-2.9079,-2.9082,-2.9112,-2.912,-2.9126,0,0,0,0,0,0,-2.8952,-2.8956,-2.8947,-2.8983,-2.8991,-2.8994,-2.9014,-2.9003,-2.9015,-2.9012,-2.9001,-2.9002,-2.9033,-2.9035,-2.9015,-2.9069,-2.9046,-2.905,-2.9067,-2.9074,-2.908,-2.9078,-2.8988,0,0,0,0,0,-2.8963,-2.8981,-2.8984,-2.9015,-2.902,-2.9016,-2.9026,-2.9019,-2.9027,-2.903,-2.9031,-2.9038,-2.9054,-2.9064,-2.9078,-2.9115,-2.9116,-2.9133,-2.9138,-2.9143,-2.9147,-2.9166,-2.9173,-2.9095,-2.9095,-2.9095,0,0,-2.8985,-2.8989,-2.9002,-2.9021,-2.9027,-2.9045,-2.9019,-2.904,-2.9054,-2.9033,-2.9059,-2.9061,-2.9068,-2.9101,-2.9116,-2.9104,-2.9168,-2.9147,-2.9151,-2.9152,-2.917,-2.9177,-2.9184,-2.9097,-2.9097,-2.9097,0,0,-2.9035,-2.9041,-2.9067,-2.9074,-2.9082,-2.908,-2.9086,-2.9091,-2.9092,-2.9119,-2.9103,-2.9119,-2.9146,-2.9151,-2.9158,-2.921,-2.9197,-2.9215,-2.9245,-2.9263,-2.9269,-2.9275,-2.9292,-2.9299,-2.9219,-2.9219,-2.9219,0,-2.9062,-2.909,-2.9082,-2.9104,-2.9113,-2.9095,-2.9121,-2.9128,-2.914,-2.9146,-2.9133,-2.9166,-2.917,-2.9203,-2.9216,-2.9222,-2.9228,-2.9214,-2.9269,-2.9274,-2.9279,-2.9296,-2.9303,-2.9221,-2.9221,-2.9221,-2.9221,0,-2.9122,-2.9142,-2.9162,-2.9175,-2.9186,-2.921,-2.9205,-2.9217,-2.9209,-2.9208,-2.9235,-2.9239,-2.9253,-2.9261,-2.9254,-2.9293,-2.9285,-2.9271,-2.9247,-2.9289,-2.9304,-2.9311,-2.9224,-2.9223,-2.9223,-2.9222,0,0,-2.919,-2.9199,-2.9207,-2.9212,-2.922,-2.9235,-2.9258,-2.9273,-2.9283,-2.9292,-2.931,-2.9334,-2.932,-2.9328,-2.9321,-2.9337,-2.9377,-2.932,-2.932,-2.933,-2.942,-2.943,-2.9437,-2.9369,-2.937,-2.9371,-2.9419,0,-2.924,-2.928,-2.9273,-2.9312,-2.933,-2.9313,-2.9333,-2.934,-2.9339,-2.9353,-2.9352,-2.9369,-2.935,-2.9354,-2.937,-2.9369,-2.9395,-2.9366,-2.9385,-2.9385,-2.9382,-2.9446,-2.9457,-2.9501,-2.9425,-2.9426,-2.9427,0,-2.9302,-2.9314,-2.9355,-2.936,-2.9367,-2.9385,-2.9398,-2.9412,-2.9419,-2.9417,-2.9426,-2.9416,-2.9438,-2.9414,-2.9444,-2.9424,-2.9431,-2.9432,-2.9434,-2.9434,-2.9408,-2.9447,-2.9516,-2.9522,-2.9436,-2.9435,-2.9435,0,-2.9347,-2.9374,-2.9401,-2.9406,-2.9413,-2.9426,-2.943,-2.9435,-2.9445,-2.9455,-2.9461,-2.9474,-2.9481,-2.9491,-2.9485,-2.9468,-2.9515,-2.9491,-2.9513,-2.9513,-2.9523,-2.9522,-2.9593,-2.953,-2.953,-2.953,-2.9529,0,-2.9402,-2.9427,-2.9421,-2.9438,-2.9465,-2.9458,-2.9485,-2.9486,-2.9491,-2.9507,-2.9494,-2.9509,-2.95,-2.9515,-2.951,-2.9535,-2.9538,-2.9537,-2.9535,-2.9537,-2.9537,-2.9541,-2.9538,-2.9531,-2.9531,-2.9531,-2.953,0,-2.9457,-2.9454,-2.9482,-2.9487,-2.9488,-2.9508,-2.9512,-2.9527,-2.9525,-2.9546,-2.955,-2.9547,-2.9563,-2.9558,-2.9576,-2.9572,-2.9603,-2.9598,-2.9601,-2.9599,-2.9622,-2.9619,-2.9696,-2.9706,-2.9637,-2.9638,-2.9639,0,-2.9492,-2.951,-2.9517,-2.9527,-2.9532,-2.9548,-2.9557,-2.955,-2.956,-2.957,-2.9583,-2.9599,-2.961,-2.9637,-2.9636,-2.9649,-2.9643,-2.9669,-2.9645,-2.9646,-2.9642,-2.9641,-2.9642,-2.9674,-2.9674,-2.9675,-2.9676,0,-2.9553,-2.9551,-2.9565,-2.9579,-2.959,-2.96,-2.9609,-2.9618,-2.9612,-2.9623,-2.964,-2.9649,-2.9667,-2.9682,-2.9693,-2.9696,-2.9684,-2.9683,-2.9689,-2.9691,-2.9692,-2.9691,-2.9613,-2.9681,-2.9681,-2.968,-2.968,-2.968,-2.9598,-2.9614,-2.9621,-2.9637,-2.9643,-2.9652,-2.9666,-2.9666,-2.968,-2.9695,-2.9689,-2.9708,-2.9714,-2.9729,-2.9733,-2.9747,-2.9737,-2.9746,-2.9748,-2.975,-2.9752,-2.969,-2.975,-2.9749,-2.9749,-2.9749,-2.9749,0,-2.9658,-2.9662,-2.9677,-2.969,-2.9702,-2.9691,-2.9701,-2.9711,-2.9728,-2.9735,-2.9747,-2.9766,-2.978,-2.9781,-2.9794,-2.9805,-2.98,-2.9809,-2.9807,-2.9808,-2.9761,-2.9754,-2.9812,-2.9812,-2.9812,-2.9812,-2.9812,-2.9812,-2.9691,-2.9717,-2.9715,-2.9744,-2.9747,-2.9766,-2.9772,-2.978,-2.9785,-2.9807,-2.9819,-2.9819,-2.9823,-2.9837,-2.9849,-2.9849,-2.9854,-2.9864,-2.9862,-2.9818,-2.9811,-2.9805,-2.9799,-2.9866,-2.9866,-2.9907,-2.9908,-2.9908]}]]